Hourly Data Report for June 24, 2021

OTTAWA INTL A
ONTARIO
Current Station Operator: NAVCAN

45°19'00.000" N
75°40'00.000" W
114.90 m
6106001
71628
YOW

Download Data

Hourly Data (June 2021)
Hourly Data Report for June 24, 2021
TIME
LST
Temp Definition
°C
Dew Point Definition
°C
Rel Hum Definition
%
Precip. Amount Definition
mm

Wind Dir Definition
10's deg

Wind Spd Definition
km/h
Visibility Definition
km
Stn Press Definition
kPa
Hmdx Definition


Wind Chill Definition


Weather Definition


00:00 13.4 7.3 66   19 11 24.1 100.92     LegendNANA
01:00 11.7 7.2 73   17 9 24.1 100.92     Mainly Clear
02:00 11.0 6.6 74   16 9 24.1 100.97     LegendNANA
03:00 10.9 6.7 75   16 5 24.1 100.98     LegendNANA
04:00 10.5 6.8 78   16 9 24.1 100.97     Mainly Clear
05:00 11.3 7.3 76   16 9 24.1 101.01     LegendNANA
06:00 14.1 8.4 68   18 10 24.1 101.01     LegendNANA
07:00 16.8 9.1 60   19 13 24.1 101.00     Mainly Clear
08:00 18.8 9.9 56   17 18 24.1 101.00     LegendNANA
09:00 22.1 10.4 47   18 18 24.1 101.01     LegendNANA
10:00 24.4 10.3 41   18 20 24.1 100.99 26   Clear
11:00 25.4 10.1 37   21 28 24.1 100.95 27   LegendNANA
12:00 26.3 10.9 38   20 25 24.1 100.88 28   LegendNANA
13:00 26.5 10.0 35   21 32 24.1 100.87 28   Mainly Clear
14:00 26.8 9.7 34   18 34 24.1 100.85 28   LegendNANA
15:00 27.2 9.2 32   20 27 24.1 100.83 28   LegendNANA
16:00 26.6 10.8 37   19 18 24.1 100.77 28   Mostly Cloudy
17:00 25.7 11.5 40   20 23 24.1 100.73 28   LegendNANA
18:00 24.8 10.6 40   20 17 24.1 100.75 26   LegendNANA
19:00 24.0 10.3 42   20 17 24.1 100.76 25   Cloudy
20:00 22.3 10.6 47   18 12 24.1 100.75     LegendNANA
21:00 20.9 11.6 55   16 9 24.1 100.80     LegendNANA
22:00 19.5 11.7 60   14 9 24.1 100.80     Cloudy
23:00 20.8 10.8 52   17 13 24.1 100.75     LegendNANA

Notes on Data Quality.

Legend

  • E = Estimated
  • M = Missing
  • NA = Not Available*
  • [empty] = Indicates an unobserved value
Date modified: